Weather History for Greenwood, MS

Change the Weather History Date:

Friday, March 29, 2013

  Actual Average Record
Temperature  
Mean Temperature 54 °F 59 °F  
Max Temperature 62 °F 71 °F 87 °F (2007)
Min Temperature 45 °F 47 °F 31 °F (1955)
Degree Days  
Heating Degree Days 11 7  
Month to date heating degree days 478 302  
Since 1 July heating degree days 2558 2533  
Cooling Degree Days 0 1  
Month to date cooling degree days 0 23  
Year to date cooling degree days 12 28  
Growing Degree Days 4 (Base 50)    
Moisture  
Dew Point 48 °F    
Average Humidity 72    
Maximum Humidity 93    
Minimum Humidity 50    
Precipitation  
Precipitation 0.12 in 0.15 in 2.25 in (1991)
Month to date precipitation 4.46 4.00  
Year to date precipitation 16.92 12.94  
Sea Level Pressure  
Sea Level Pressure 30.23 in    
Wind  
Wind Speed 5 mph (SSE)    
Max Wind Speed 12 mph    
Max Gust Speed 14 mph    
Visibility 10 miles    
Events Rain    
T = Trace of Precipitation, MM = Missing Value Source: NWS Daily Summary

Daily Weather History Graph

Daily Weather History Graph

Search for Another Location

Airport:

Trip Planner

Search our weather history database for the weather conditions in past years. The results will help you decide how hot, cold, wet, or windy it might be!

Date:

Astronomy

Mar. 29, 2013 Rise Set
Actual Time 6:51 AM CDT 7:18 PM CDT
Civil Twilight 6:26 AM CDT 7:43 PM CDT
Nautical Twilight 5:57 AM CDT 8:13 PM CDT
Astronomical Twilight 5:27 AM CDT 8:42 PM CDT
Moon 10:08 PM CDT (3/29) 8:09 AM CDT (3/29)
Length of Visible Light 13h 17m
Length of Day
12h 27m
Waning Gibbous, 93% of the Moon is Illuminated
Mar 29
Waning Gibbous
Apr 2
Last Quarter
Apr 10
New
Apr 18
First Quarter
Apr 25
Full

Hourly Weather History & Observations

Time (CDT) Temp. Dew Point Humidity Pressure Visibility Wind Dir Wind Speed Gust Speed Precip Events Conditions
12:53 AM 46.0 °F 39.9 °F 79% 30.27 in 10.0 mi Calm Calm - N/A   Clear
1:53 AM 50.0 °F 39.0 °F 66% 30.27 in 10.0 mi Calm Calm - N/A   Clear
2:53 AM 54.0 °F 36.0 °F 51% 30.26 in 10.0 mi South 4.6 mph - N/A   Clear
3:53 AM 52.0 °F 37.9 °F 59% 30.23 in 10.0 mi South 6.9 mph - N/A   Clear
4:53 AM 52.0 °F 36.0 °F 54% 30.22 in 10.0 mi South 6.9 mph - N/A   Clear
5:53 AM 51.1 °F 37.9 °F 61% 30.22 in 10.0 mi SSE 8.1 mph - N/A   Clear
6:53 AM 50.0 °F 39.9 °F 68% 30.25 in 10.0 mi South 6.9 mph - N/A   Clear
7:53 AM 53.1 °F 43.0 °F 69% 30.27 in 10.0 mi SSW 6.9 mph - N/A   Clear
8:53 AM 57.9 °F 46.9 °F 67% 30.27 in 10.0 mi SSW 9.2 mph - N/A   Clear
9:53 AM 61.0 °F 48.0 °F 62% 30.26 in 10.0 mi SSW 8.1 mph - N/A   Partly Cloudy
10:53 AM 62.1 °F 48.0 °F 60% 30.27 in 10.0 mi SW 9.2 mph - N/A   Overcast
11:53 AM 61.0 °F 48.0 °F 62% 30.29 in 10.0 mi NW 4.6 mph - N/A   Overcast
12:53 PM 57.0 °F 53.1 °F 87% 30.28 in 10.0 mi North 6.9 mph - 0.01 in Rain Light Rain
1:53 PM 55.0 °F 52.0 °F 89% 30.27 in 10.0 mi NE 9.2 mph - 0.03 in Rain Light Rain
2:53 PM 55.9 °F 54.0 °F 93% 30.23 in 9.0 mi SE 4.6 mph - 0.07 in Rain Light Rain
3:53 PM 60.1 °F 55.0 °F 83% 30.17 in 10.0 mi SSE 9.2 mph - 0.01 in   Mostly Cloudy
4:53 PM 61.0 °F 54.0 °F 78% 30.17 in 10.0 mi South 6.9 mph - N/A   Overcast
5:53 PM 60.1 °F 54.0 °F 80% 30.18 in 10.0 mi Calm Calm - 0.00 in   Overcast
6:53 PM 59.0 °F 55.0 °F 87% 30.17 in 10.0 mi Calm Calm - 0.00 in   Overcast
7:53 PM 57.9 °F 55.0 °F 90% 30.16 in 10.0 mi Calm Calm - N/A   Overcast
8:53 PM 54.0 °F 52.0 °F 93% 30.17 in 10.0 mi North 3.5 mph - N/A   Overcast
9:53 PM 55.9 °F 53.1 °F 90% 30.18 in 10.0 mi ENE 5.8 mph - N/A   Mostly Cloudy
10:53 PM 55.9 °F 52.0 °F 87% 30.19 in 10.0 mi Calm Calm - N/A   Overcast
11:53 PM 55.9 °F 52.0 °F 87% 30.18 in 10.0 mi ENE 3.5 mph - N/A   Overcast